Location: Eaton Estates
(41.3089°N, 82.0057°W)
Time: 16:36:10
(UTC+00:00)

Alouette 2 Rocket - Pass Details

Date: 17 June 2021
Orbit: 501 x 2650 km, 79.8° (Epoch: 02 August)

Event Time Altitude Azimuth Distance (km) Brightness Sun altitude
Rises 08:53:07 0° 343° (NNW) 2,615 7.2 -9.9°
Reaches altitude 10° 08:55:10 10° 338° (NNW) 1,718 6.1 -9.6°
Maximum altitude 08:58:38 53° 261° (W) 662 3.4 -9.1°
Drops below altitude 10° 09:02:43 10° 184° (S) 2,010 5.8 -8.6°
Sets 09:05:17 0° 180° (S) 3,125 6.8 -8.2°
